Voltar ao catálogo

CENTISPACE-1 S3

AtivoNavegaçãoLEO
NORAD 53757·PAYLOAD·🇨🇳 China

Lançado Sep 6, 2022 de Jiuquan Satellite Launch Center

Loading…

Próximas Passagens (próximas 24 horas)

TLE

AtualizadoSource: Space-Track

Época: Sep 14, 2026, 14:29 UTC

1 53757U 22108A   26257.60377610  .00000209  00000-0  79975-4 0  9994
2 53757  53.5334  45.4889 0008474 214.0991 145.9441 14.61327866214604

Acompanhe CENTISPACE-1 S3 em tempo real com AllMySat

Download on the App Store